Weather History for KRQB - September, 2013

Change the Weather History Date:

Saturday, September 28, 2013

  Actual Average Record
Temperature  
Mean Temperature 61 °F -  
Max Temperature 77 °F 65 °F 82 °F (1971)
Min Temperature 45 °F 40 °F 24 °F (1991)
Degree Days  
Heating Degree Days 4    
Growing Degree Days 11 (Base 50)    
Moisture  
Dew Point 52 °F    
Average Humidity 71    
Maximum Humidity 100    
Minimum Humidity 40    
Precipitation  
Precipitation 0.00 in - - ()
Sea Level Pressure  
Sea Level Pressure 30.08 in    
Wind  
Wind Speed 5 mph (SSE)    
Max Wind Speed 17 mph    
Max Gust Speed 26 mph    
Visibility 9 miles    
Events      
Averages and records for this station are not official NWS values.
T = Trace of Precipitation, MM = Missing Value Source: NWS Daily Summary

Daily Weather History Graph

Daily Weather History Graph

Search for Another Location

Airport or City:

Trip Planner

Search our weather history database for the weather conditions in past years. The results will help you decide how hot, cold, wet, or windy it might be!

Date:

Astronomy

Sep. 28, 2013 Rise Set
Actual Time 7:36 AM EDT 7:27 PM EDT
Civil Twilight 7:07 AM EDT 7:56 PM EDT
Nautical Twilight 6:34 AM EDT 8:29 PM EDT
Astronomical Twilight 6:00 AM EDT 9:03 PM EDT
Moon 1:13 AM EDT (9/28) 3:55 PM EDT (9/28)
Length of Visible Light 12h 48m
Length of Day
11h 51m
Last Quarter, 36% of the Moon is Illuminated
Sep 28
Last Quarter
Oct 4
New
Oct 11
First Quarter
Oct 18
Full
Oct 26
Last Quarter

Hourly Weather History & Observations

Time (EDT) Temp. Dew Point Humidity Pressure Visibility Wind Dir Wind Speed Gust Speed Precip Events Conditions
12:15 AM 52.5 °F 51.6 °F 97% 30.17 in 10.0 mi Calm Calm - N/A   Clear
12:35 AM 53.2 °F 52.0 °F 95% 30.17 in 10.0 mi SSW 6.9 mph - N/A   Clear
12:54 AM 52.5 °F 52.2 °F 99% 30.17 in 10.0 mi Calm Calm - N/A   Clear
1:15 AM 54.1 °F 51.4 °F 91% 30.17 in 10.0 mi SSW 3.5 mph - N/A   Clear
1:34 AM 52.9 °F 51.1 °F 94% 30.16 in 10.0 mi SSE 3.5 mph - N/A   Clear
1:55 AM 52.9 °F 50.9 °F 93% 30.16 in 10.0 mi Calm Calm - N/A   Clear
2:15 AM 52.9 °F 51.4 °F 95% 30.16 in 10.0 mi Calm Calm - N/A   Clear
2:34 AM 53.6 °F 51.8 °F 94% 30.17 in 10.0 mi SSW 3.5 mph - N/A   Clear
2:55 AM 52.3 °F 51.1 °F 95% 30.17 in 10.0 mi Calm Calm - N/A   Clear
3:15 AM 53.8 °F 52.5 °F 95% 30.16 in 10.0 mi Calm Calm - N/A   Clear
3:34 AM 52.2 °F 51.1 °F 96% 30.16 in 10.0 mi Calm Calm - N/A   Clear
3:55 AM 49.6 °F 48.4 °F 95% 30.16 in 10.0 mi Calm Calm - N/A   Clear
4:15 AM 47.3 °F 46.9 °F 99% 30.16 in 10.0 mi Calm Calm - N/A   Clear
4:34 AM 47.3 °F 47.3 °F 100% 30.16 in 10.0 mi Calm Calm - N/A   Clear
4:55 AM 47.8 °F 47.3 °F 98% 30.16 in 10.0 mi Calm Calm - N/A   Clear
5:15 AM 48.6 °F 48.4 °F 99% 30.16 in 10.0 mi Calm Calm - N/A   Clear
5:34 AM 48.2 °F 48.2 °F 100% 30.16 in 10.0 mi Calm Calm - N/A   Clear
5:55 AM 45.7 °F 45.7 °F 100% 30.16 in 10.0 mi Calm Calm - N/A   Mostly Cloudy
6:15 AM 46.2 °F 46.2 °F 100% 30.16 in 7.0 mi Calm Calm - N/A   Overcast
6:34 AM 50.2 °F 50.2 °F 100% 30.16 in 7.0 mi Calm Calm - N/A   Overcast
6:55 AM 52.5 °F 52.5 °F 100% 30.16 in 7.0 mi South 4.6 mph - N/A   Overcast
7:14 AM 54.5 °F 54.5 °F 100% 30.17 in 5.0 mi SSE 6.9 mph - N/A   Overcast
7:34 AM 56.1 °F 56.1 °F 100% 30.16 in 3.0 mi SE 9.2 mph - N/A   Overcast
7:55 AM 57.2 °F 57.2 °F 100% 30.15 in 3.0 mi SE 10.4 mph - N/A   Overcast
8:14 AM 57.4 °F 57.4 °F 100% 30.16 in 4.0 mi SSE 9.2 mph - N/A   Overcast
8:35 AM 57.7 °F 57.2 °F 98% 30.16 in 5.0 mi SSE 6.9 mph 17.3 mph N/A   Overcast
8:55 AM 58.1 °F 57.2 °F 97% 30.16 in 7.0 mi South 11.5 mph 16.1 mph N/A   Overcast
9:14 AM 59.0 °F 56.8 °F 93% 30.16 in 7.0 mi SE 11.5 mph 16.1 mph N/A   Mostly Cloudy
9:35 AM 60.3 °F 56.8 °F 88% 30.16 in 10.0 mi SSE 15.0 mph 18.4 mph N/A   Scattered Clouds
9:55 AM 61.2 °F 56.3 °F 84% 30.16 in 10.0 mi SSE 13.8 mph 19.6 mph N/A   Clear
10:14 AM 62.1 °F 56.3 °F 81% 30.16 in 10.0 mi SSE 11.5 mph 19.6 mph N/A   Clear
10:35 AM 63.3 °F 53.8 °F 71% 30.14 in 10.0 mi SE 10.4 mph 19.6 mph N/A   Clear
10:55 AM 64.6 °F 54.0 °F 68% 30.14 in 10.0 mi SE 12.7 mph 18.4 mph N/A   Clear
11:14 AM 66.0 °F 54.1 °F 65% 30.14 in 10.0 mi SE 12.7 mph 18.4 mph N/A   Clear
11:35 AM 66.7 °F 53.8 °F 63% 30.13 in 10.0 mi SSE 9.2 mph - N/A   Clear
11:55 AM 67.8 °F 54.3 °F 62% 30.12 in 10.0 mi SSE 11.5 mph 17.3 mph N/A   Clear
12:14 PM 69.8 °F 54.9 °F 59% 30.11 in 10.0 mi SSE 9.2 mph - N/A   Clear
12:35 PM 70.3 °F 54.9 °F 58% 30.11 in 10.0 mi SSE 11.5 mph 18.4 mph N/A   Clear
12:55 PM 71.1 °F 54.9 °F 56% 30.10 in 10.0 mi SSE 9.2 mph - N/A   Clear
1:14 PM 73.2 °F 54.9 °F 52% 30.09 in 10.0 mi South 8.1 mph 17.3 mph N/A   Clear
1:35 PM 74.1 °F 54.9 °F 51% 30.08 in 10.0 mi South 12.7 mph 21.9 mph N/A   Clear
1:55 PM 75.4 °F 54.9 °F 49% 30.06 in 10.0 mi SSE 8.1 mph 23.0 mph N/A   Clear
2:15 PM 75.7 °F 54.9 °F 48% 30.05 in 10.0 mi SSE 12.7 mph 23.0 mph N/A   Clear
2:34 PM 77.0 °F 54.0 °F 45% 30.04 in 10.0 mi SSW 6.9 mph 19.6 mph N/A   Clear
2:54 PM 77.0 °F 52.9 °F 43% 30.02 in 10.0 mi South 13.8 mph 21.9 mph N/A   Clear
3:15 PM 77.5 °F 52.7 °F 42% 30.02 in 10.0 mi South 9.2 mph 23.0 mph N/A   Clear
3:34 PM 77.2 °F 51.6 °F 41% 30.01 in 10.0 mi South 15.0 mph 26.5 mph N/A   Clear
3:55 PM 77.4 °F 52.7 °F 42% 30.01 in 10.0 mi South 17.3 mph 23.0 mph N/A   Clear
4:15 PM 77.5 °F 52.3 °F 41% 30.00 in 10.0 mi South 13.8 mph 23.0 mph N/A   Clear
4:34 PM 77.0 °F 51.6 °F 41% 30.00 in 10.0 mi SSW 10.4 mph 20.7 mph N/A   Clear
4:55 PM 76.5 °F 50.4 °F 40% 29.99 in 10.0 mi South 9.2 mph 19.6 mph N/A   Clear
5:15 PM 75.6 °F 51.3 °F 42% 29.99 in 10.0 mi South 9.2 mph 18.4 mph N/A   Clear
5:34 PM 76.5 °F 52.2 °F 43% 29.98 in 10.0 mi SSE 8.1 mph - N/A   Clear
5:55 PM 77.0 °F 51.8 °F 41% 29.98 in 10.0 mi South 13.8 mph 23.0 mph N/A   Clear
6:15 PM 76.3 °F 51.8 °F 42% 29.98 in 10.0 mi South 9.2 mph 21.9 mph N/A   Clear
6:34 PM 75.7 °F 52.2 °F 44% 29.98 in 10.0 mi South 10.4 mph 18.4 mph N/A   Clear
6:55 PM 74.8 °F 51.4 °F 44% 29.98 in 10.0 mi South 5.8 mph 17.3 mph N/A   Clear
7:15 PM 73.4 °F 51.3 °F 46% 29.98 in 10.0 mi South 6.9 mph - N/A   Clear
7:34 PM 71.6 °F 51.3 °F 49% 29.97 in 10.0 mi SE 5.8 mph - N/A   Clear
7:55 PM 69.8 °F 51.8 °F 53% 29.96 in 10.0 mi SSE 4.6 mph - N/A   Clear
8:15 PM 67.5 °F 51.8 °F 57% 29.96 in 10.0 mi SSE 4.6 mph - N/A   Clear
8:34 PM 66.9 °F 51.8 °F 58% 29.95 in 10.0 mi SSE 3.5 mph - N/A   Clear
8:55 PM 67.8 °F 51.4 °F 56% 29.95 in 10.0 mi SSE 5.8 mph - N/A   Clear
9:15 PM 67.6 °F 51.3 °F 56% 29.95 in 10.0 mi SSE 5.8 mph - N/A   Clear
9:34 PM 67.6 °F 51.1 °F 55% 29.94 in 10.0 mi SSE 5.8 mph - N/A   Clear
9:55 PM 67.3 °F 51.1 °F 56% 29.94 in 10.0 mi SSE 3.5 mph - N/A   Clear
10:15 PM 66.6 °F 51.3 °F 58% 29.94 in 10.0 mi SE 5.8 mph - N/A   Clear
10:34 PM 67.1 °F 51.4 °F 57% 29.94 in 10.0 mi SSE 4.6 mph - N/A   Mostly Cloudy
10:55 PM 67.5 °F 51.3 °F 56% 29.94 in 10.0 mi SSE 5.8 mph - N/A   Overcast
11:15 PM 68.4 °F 51.6 °F 55% 29.93 in 10.0 mi SSE 6.9 mph - N/A   Overcast
11:34 PM 69.3 °F 51.4 °F 53% 29.93 in 10.0 mi SSE 6.9 mph 16.1 mph N/A   Overcast
11:55 PM 69.4 °F 51.4 °F 53% 29.92 in 10.0 mi SSE 9.2 mph - N/A   Overcast